Weather Roundup
Issued by NWS

Home | Current Version | Previous Version | Graphics & Text | Print | Product List | Glossary Off
Versions: 1 2 3 4 5 6 7 8 9 10 11 12 13 14 15 16 17 18 19 20 21 22 23 24 25 26 27 28 29 30 31 32 33 34 35 36 37 38 39 40 41 42 43 44 45 46 47 48 49 50

877
NZUS93 KARX 172259
HRRWXR

CURRENT HOURLY OBSERVATIONS ACROSS
MUCH OF THE UPPER MISSISSIPPI VALLEY
NATIONAL WEATHER SERVICE LA CROSSE WI
500 PM CST WED JAN 17 2018


...SOUTHEAST MINNESOTA...


CITY           SKY/WX    TMP DP  RH WIND       PRES   REMARKS
ROCHESTER      FAIR      21  13  71 SW22      30.13S WCI   5
ROCHESTER/MAYO FAIR      25  13  60 SW14G21   30.16R WCI  13
WINONA         FAIR      27  12  54 W6        30.17S WCI  20
AUSTIN         NOT AVBL
ALBERT LEA     FAIR      25  12  58 SW14G20   30.17R WCI  13
DODGE CENTER   FAIR      21  12  68 SW21      30.15R WCI   6
PRESTON        FAIR      21  11  66 SW23G32   30.15F WCI   5
OWATONNA       FAIR      23  16  74 SW13      30.16S WCI  11
FARIBAULT      FAIR      25  16  68 S12G18    30.13F WCI  14
$$

...ELSEWHERE IN MINNESOTA...


CITY           SKY/WX    TMP DP  RH WIND       PRES   REMARKS
MINNEAPOLIS    FAIR      27  14  58 SW13G20   30.09F WCI  16
INTNL FALLS    FAIR      23  11  60 SW8       29.80F WCI  14
DULUTH         FAIR       9   9 100 W22G32    29.86F WCI -11
RED WING       FAIR      25  10  54 SW8       30.13F WCI  16
REDWOOD FALLS  CLEAR     27  17  66 SW12      30.12S WCI  17
MANKATO        FAIR      27  17  66 SW13      30.15F WCI  16
WORTHINGTON    CLEAR     27  18  69 SW22      30.15F WCI  13
FAIRMONT       CLEAR     28  18  66 SW15G23   30.17R WCI  16
$$

...SOUTHWEST WISCONSIN...


CITY           SKY/WX    TMP DP  RH WIND       PRES   REMARKS
LA CROSSE      FAIR      24  10  55 S18       30.19F WCI  10
PRAIRIE DU CHI FAIR      22   7  54 S9        30.31S WCI  11
BOSCOBEL       FAIR      22   8  55 SW12G20   30.27F WCI  10
LONE ROCK      FAIR      21   8  57 SW12G21   30.26F WCI   9
PLATTEVILLE    FAIR      20  10  65 SW16      30.30S WCI   6
FORT MC COY    FAIR      24   9  52 SW6       30.18F WCI  17
CAMP DOUGLAS   CLEAR     23   7  50 SW13G20   30.14F WCI  11
MAUSTON-NEW LI FAIR      25   6  45 SW9G17    30.15F WCI  15
VIROQUA        FAIR      20  11  67 SW17G23   30.18F WCI   6
WIS DELLS      FAIR      22   6  50 SW16      30.18F WCI   8
$$

...ELSEWHERE IN WISCONSIN...


CITY           SKY/WX    TMP DP  RH WIND       PRES   REMARKS
MILWAUKEE      FAIR      20   8  60 W17G37    30.23F WCI   5
MADISON        FAIR      19   7  59 SW8G20    30.24F WCI   9
GREEN BAY      FAIR      22   8  55 SW14      30.07F WCI   9
EAU CLAIRE     NOT AVBL
BLACK RVR FLS  FAIR      26   6  43 SW8G18    30.15S WCI  17
MEDFORD        FAIR      22   6  51 SW10G17   30.04F WCI  11
WAUSAU         FAIR      22   5  48 SW10      30.04F WCI  11
WIS RAPIDS     FAIR      22   5  48 SW13      30.11F WCI  10
MARSHFIELD     FAIR      22   7  52 SW12      30.06S WCI  10
RICE LAKE      FAIR      23   8  52 S3        30.05F
$$

...NORTHEAST IOWA...


CITY           SKY/WX    TMP DP  RH WIND       PRES   REMARKS
WATERLOO       FAIR      22   9  57 SW13      30.31S WCI  10
DUBUQUE        FAIR      18   8  65 SW18G24   30.30F WCI   2
DECORAH        FAIR      21  10  63 SW10G20   30.22F WCI  10
MASON CITY     CLEAR     23  12  62 SW17G25   30.23F WCI   9
CHARLES CITY   FAIR      23  12  63 SW16      30.24F WCI  10
OELWEIN        FAIR      19  12  73 SW15      30.29F WCI   5
$$

...ELSEWHERE IN IOWA...


CITY           SKY/WX    TMP DP  RH WIND       PRES   REMARKS
DES MOINES     CLEAR     24   9  52 SW15      30.37F WCI  11
IOWA CITY      FAIR      23  10  57 SW9       30.41F WCI  13
FORT DODGE     CLEAR     23  13  65 SW18G26   30.27F WCI   9
MARSHALLTOWN   CLEAR     22  11  62 SW13      30.32F WCI  10
CEDAR RAPIDS   FAIR      22   9  57 SW13      30.35F WCI  10
$$

...NORTHERN ILLINOIS...


CITY           SKY/WX    TMP DP  RH WIND       PRES   REMARKS
CHICAGO-OHARE  MOCLDY    20   8  60 SW17G24   30.36F WCI   5
CHICAGO-MIDWAY MOCLDY    20   9  62 SW13      30.38F WCI   7
MOLINE         FAIR      21  11  65 SW12      30.41F WCI   9
ROCKFORD       FAIR      18   8  65 SW14G21   30.36F WCI   4
PEORIA         FAIR      20  10  65 SW12      30.47F WCI   8
$$

NOTE: "FAIR" INDICATES FEW OR NO CLOUDS BELOW 12,000 FEET WITH NO
SIGNIFICANT WEATHER AND/OR OBSTRUCTIONS TO VISIBILITY. WIND
SPEEDS ARE IN MILES-PER-HOUR.




USA.gov is the U.S. government's official web portal to all federal, state and local government web resources and services.